Weather History for KMOB - August, 2012

Change the Weather History Date:

Sunday, August 12, 2012

  Actual Average Record
Temperature  
Mean Temperature 81 °F 82 °F  
Max Temperature 93 °F 91 °F 100 °F (1954)
Min Temperature 68 °F 73 °F 60 °F (1967)
Cooling Degree Days 16 17  
Month to date cooling degree days 214 204  
Year to date cooling degree days 1898 1615  
Since 1 June cooling degree days 1192 1170  
Growing Degree Days 30 (Base 50)    
Moisture  
Dew Point 68 °F    
Average Humidity 69    
Maximum Humidity 97    
Minimum Humidity 41    
Precipitation  
Precipitation 0.00 in 0.24 in 3.94 in (1911)
Month to date precipitation 1.13 2.99  
Year to date precipitation 47.88 43.19  
Sea Level Pressure  
Sea Level Pressure 30.00 in    
Wind  
Wind Speed 3 mph (SSW)    
Max Wind Speed 10 mph    
Max Gust Speed 15 mph    
Visibility 10 miles    
Events      
T = Trace of Precipitation, MM = Missing Value Source: NWS Daily Summary

Daily Weather History Graph

Daily Weather History Graph

Search for Another Location

Airport or City:

Trip Planner

Search our weather history database for the weather conditions in past years. The results will help you decide how hot, cold, wet, or windy it might be!

Date:

Astronomy

Aug. 12, 2012 Rise Set
Actual Time 6:17 AM CDT 7:37 PM CDT
Civil Twilight 5:52 AM CDT 8:02 PM CDT
Nautical Twilight 5:21 AM CDT 8:33 PM CDT
Astronomical Twilight 4:50 AM CDT 9:04 PM CDT
Moon 1:39 AM CDT (8/12) 3:54 PM CDT (8/12)
Length of Visible Light 14h 10m
Length of Day
13h 19m
Waning Crescent, 24% of the Moon is Illuminated
Aug 12
Waning Crescent
Aug 17
New
Aug 24
First Quarter
Aug 31
Full
Sep 8
Last Quarter

Hourly Weather History & Observations

Time (CDT) Temp. Heat Index Dew Point Humidity Pressure Visibility Wind Dir Wind Speed Gust Speed Precip Events Conditions
12:56 AM 73.9 °F - 69.1 °F 85% 29.98 in 10.0 mi Calm Calm - N/A   Partly Cloudy
1:56 AM 73.0 °F - 68.0 °F 84% 29.98 in 10.0 mi Calm Calm - N/A   Partly Cloudy
2:56 AM 73.0 °F - 69.1 °F 87% 29.98 in 10.0 mi Calm Calm - N/A   Partly Cloudy
3:56 AM 70.0 °F - 68.0 °F 93% 29.99 in 9.0 mi Calm Calm - N/A   Partly Cloudy
4:56 AM 71.1 °F - 68.0 °F 90% 30.00 in 10.0 mi Calm Calm - N/A   Partly Cloudy
5:56 AM 69.1 °F - 66.9 °F 93% 30.00 in 9.0 mi Calm Calm - 0.02 in   Clear
6:56 AM 71.1 °F - 68.0 °F 90% 30.01 in 10.0 mi Calm Calm - N/A   Scattered Clouds
7:56 AM 75.9 °F - 68.0 °F 76% 30.03 in 10.0 mi Calm Calm - N/A   Partly Cloudy
8:56 AM 82.0 °F 84.5 °F 66.9 °F 60% 30.04 in 10.0 mi Calm Calm - N/A   Partly Cloudy
9:56 AM 84.9 °F 87.1 °F 66.0 °F 53% 30.04 in 10.0 mi Calm Calm - N/A   Scattered Clouds
10:56 AM 87.1 °F 89.9 °F 66.9 °F 51% 30.04 in 10.0 mi Calm Calm - N/A   Scattered Clouds
11:56 AM 88.0 °F 90.7 °F 66.9 °F 49% 30.03 in 10.0 mi Variable 3.5 mph - N/A   Scattered Clouds
12:56 PM 89.1 °F 91.0 °F 64.9 °F 45% 30.01 in 10.0 mi Variable 4.6 mph - N/A   Scattered Clouds
1:56 PM 90.0 °F 91.7 °F 64.9 °F 43% 30.01 in 10.0 mi West 4.6 mph - N/A   Mostly Cloudy
2:56 PM 90.0 °F 90.6 °F 63.0 °F 40% 29.99 in 10.0 mi WSW 4.6 mph - N/A   Scattered Clouds
3:56 PM 90.0 °F 90.3 °F 62.1 °F 39% 29.98 in 10.0 mi SW 5.8 mph - N/A   Scattered Clouds
4:56 PM 89.1 °F 93.7 °F 69.1 °F 52% 29.98 in 10.0 mi SW 10.4 mph - N/A   Scattered Clouds
5:56 PM 87.1 °F 91.3 °F 69.1 °F 55% 29.97 in 10.0 mi SSW 8.1 mph - N/A   Scattered Clouds
6:56 PM 84.0 °F 87.8 °F 69.1 °F 61% 29.98 in 10.0 mi South 9.2 mph - N/A   Scattered Clouds
7:56 PM 81.0 °F 84.4 °F 70.0 °F 69% 29.99 in 10.0 mi South 5.8 mph - 0.01 in   Partly Cloudy
8:56 PM 79.0 °F - 71.1 °F 77% 30.01 in 10.0 mi South 3.5 mph - N/A   Partly Cloudy
9:56 PM 78.1 °F - 72.0 °F 81% 30.04 in 10.0 mi ESE 5.8 mph - N/A   Partly Cloudy
10:56 PM 77.0 °F - 72.0 °F 84% 30.04 in 10.0 mi SSE 5.8 mph - N/A   Scattered Clouds
11:56 PM 75.9 °F - 72.0 °F 87% 30.03 in 10.0 mi Calm Calm - N/A   Mostly Cloudy